Volver al catálogo

GLOBALSTAR M090

ActivoComunicacionesLEO
NORAD 38044·PAYLOAD·🇺🇸 United States

Lanzado Dec 28, 2011 desde Baikonur Cosmodrome

Loading…

Próximos Pases (próximas 24 horas)

TLE

ActualizadoSource: Space-Track

Época: Sep 14, 2026, 20:40 UTC

1 38044U 11080E   26257.86138309 -.00000118  00000-0 -82127-4 0  9995
2 38044  52.0123  55.5238 0000877 113.4094  50.3246 12.62268218681032

Sigue GLOBALSTAR M090 en tiempo real con AllMySat

Download on the App Store